| time (UTC) | temp F | wind direction | speed MPH | gust MPH | rain 1hr in | rain 24hr in | rain mn in | humidity % | barometer mb |
| 20260504081459 | 39 | 143 | 1.0 | 1.0 | 0.00 | 0.00 | 0.00 | 65 | 1012.5 |
| 20260504045958 | 42 | 162 | 0.0 | 2.0 | 0.00 | 0.00 | 0.00 | 60 | 1012.4 |
| 20260504044459 | 43 | 273 | 1.0 | 4.0 | 0.00 | 0.00 | 0.00 | 58 | 1012.3 |
| 20260504042959 | 44 | 284 | 2.0 | 3.0 | 0.00 | 0.00 | 0.00 | 56 | 1012.1 |
| 20260504041459 | 45 | 249 | 2.0 | 6.0 | 0.00 | 0.00 | 0.00 | 55 | 1012.1 |
| 20260504034458 | 44 | 291 | 1.0 | 4.0 | 0.00 | 0.00 | 0.00 | 56 | 1011.9 |
| 20260504032959 | 44 | 215 | 2.0 | 5.0 | 0.00 | 0.00 | 0.00 | 56 | 1011.8 |
| 20260504031459 | 44 | 252 | 1.0 | 5.0 | 0.00 | 0.00 | 0.00 | 56 | 1011.9 |
| 20260504025959 | 44 | 249 | 1.0 | 3.0 | 0.00 | 0.00 | 0.00 | 56 | 1011.9 |
| 20260504024458 | 44 | 212 | 1.0 | 5.0 | 0.00 | 0.00 | 0.00 | 57 | 1011.9 |
| 20260504022958 | 43 | 267 | 1.0 | 5.0 | 0.00 | 0.00 | 0.00 | 57 | 1012.0 |
| 20260504021458 | 43 | 252 | 1.0 | 2.0 | 0.00 | 0.00 | 0.00 | 56 | 1011.8 |
| 20260504015958 | 44 | 222 | 1.0 | 3.0 | 0.00 | 0.00 | 0.00 | 55 | 1011.9 |
| 20260504014457 | 44 | 238 | 1.0 | 2.0 | 0.00 | 0.00 | 0.00 | 54 | 1011.9 |
| 20260504012958 | 45 | 243 | 1.0 | 1.0 | 0.00 | 0.00 | 0.00 | 52 | 1011.7 |
| 20260504011459 | 45 | 249 | 1.0 | 2.0 | 0.00 | 0.00 | 0.00 | 50 | 1011.5 |
| 20260504010000 | 46 | 246 | 1.0 | 3.0 | 0.00 | 0.00 | 0.00 | 48 | 1011.4 |
| 20260504004500 | 47 | 262 | 1.0 | 3.0 | 0.00 | 0.00 | 0.00 | 46 | 1011.4 |
| 20260504002958 | 48 | 255 | 2.0 | 5.0 | 0.00 | 0.00 | 0.00 | 45 | 1011.3 |
| 20260504001500 | 48 | 264 | 2.0 | 4.0 | 0.00 | 0.00 | 0.00 | 44 | 1011.1 |
| 20260503235959 | 49 | 283 | 2.0 | 4.0 | 0.00 | 0.00 | 0.00 | 44 | 1010.9 |
| 20260503232958 | 50 | 266 | 3.0 | 6.0 | 0.00 | 0.00 | 0.00 | 43 | 1010.6 |
| 20260503224458 | 51 | 257 | 4.0 | 8.0 | 0.00 | 0.00 | 0.00 | 40 | 1010.5 |
| 20260503222958 | 52 | 232 | 5.0 | 10.0 | 0.00 | 0.00 | 0.00 | 39 | 1010.5 |
| 20260503215959 | 52 | 303 | 4.0 | 11.0 | 0.00 | 0.00 | 0.00 | 40 | 1010.4 |
| 20260503214458 | 52 | 300 | 5.0 | 13.0 | 0.00 | 0.00 | 0.00 | 38 | 1010.3 |
| 20260503212959 | 52 | 270 | 3.0 | 9.0 | 0.00 | 0.00 | 0.00 | 39 | 1010.2 |
| 20260503211458 | 52 | 264 | 4.0 | 14.0 | 0.00 | 0.00 | 0.00 | 38 | 1010.1 |
| 20260503204458 | 52 | 311 | 5.0 | 17.0 | 0.00 | 0.00 | 0.00 | 38 | 1010.0 |
| 20260503202958 | 52 | 352 | 7.0 | 16.0 | 0.00 | 0.00 | 0.00 | 37 | 1009.9 |
| 20260503201458 | 52 | 328 | 5.0 | 21.0 | 0.00 | 0.00 | 0.00 | 35 | 1010.1 |
| 20260503200002 | 53 | 16 | 6.0 | 12.0 | 0.00 | 0.00 | 0.00 | 34 | 1010.1 |
| 20260503194500 | 53 | 347 | 6.0 | 14.0 | 0.00 | 0.00 | 0.00 | 35 | 1010.2 |
| 20260503193000 | 53 | 305 | 7.0 | 13.0 | 0.00 | 0.00 | 0.00 | 34 | 1010.4 |
| 20260503191500 | 54 | 271 | 5.0 | 11.0 | 0.00 | 0.00 | 0.00 | 37 | 1010.5 |
| 20260503190001 | 52 | 273 | 7.0 | 655.0 | 1.01 | 0.00 | 0.00 | 36 | |
| 20260503184459 | 51 | 342 | 8.0 | 20.0 | 0.00 | 0.00 | 0.00 | 38 | 1010.9 |
| 20260503182959 | 51 | 235 | 5.0 | 13.0 | 0.00 | 0.00 | 0.00 | 41 | 1011.2 |
| 20260503175959 | 48 | 290 | 6.0 | 14.0 | 0.00 | 0.00 | 0.00 | 40 | 1011.5 |
| 20260503172958 | 47 | 296 | 4.0 | 13.0 | 0.00 | 0.00 | 0.00 | 44 | 1011.6 |
| 20260503171459 | 47 | 275 | 6.0 | 15.0 | 0.00 | 0.00 | 0.00 | 41 | 1011.9 |